Time,TemperatureF,DewpointF,PressureIn,WindDirection,WindDirectionDegrees,WindSpeedMPH,WindSpeedGustMPH,Humidity,HourlyPrecipIn,Conditions,Clouds,dailyrainin,SoftwareType,DateUTC
2013-03-29 00:03:00,29.0,25.0,30.35,NW,313,1.0,-999.0,83,-99.99,,,-99.99,,2013-03-29 04:03:00,
2013-03-29 00:13:00,29.0,25.0,30.35,NW,313,1.0,-999.0,83,-99.99,,,-99.99,,2013-03-29 04:13:00,
2013-03-29 00:23:00,27.0,23.0,30.35,NW,313,0.0,-999.0,84,-99.99,,,-99.99,,2013-03-29 04:23:00,
2013-03-29 00:33:00,27.0,23.0,30.35,NW,313,0.0,-999.0,85,-99.99,,,-99.99,,2013-03-29 04:33:00,
2013-03-29 00:43:00,27.0,23.0,30.35,NW,313,0.0,-999.0,85,-99.99,,,-99.99,,2013-03-29 04:43:00,
2013-03-29 00:53:00,25.0,21.0,30.35,NW,313,0.0,-999.0,85,-99.99,,,-99.99,,2013-03-29 04:53:00,
2013-03-29 01:03:00,25.0,22.0,30.35,NW,313,0.0,-999.0,87,-99.99,,,-99.99,,2013-03-29 05:03:00,
2013-03-29 01:13:00,25.0,22.0,30.35,NW,313,0.0,-999.0,87,-99.99,,,-99.99,,2013-03-29 05:13:00,
2013-03-29 01:23:00,25.0,22.0,30.35,NW,313,0.0,-999.0,87,-99.99,,,-99.99,,2013-03-29 05:23:00,
2013-03-29 01:33:00,25.0,22.0,30.35,NW,313,0.0,-999.0,89,-99.99,,,-99.99,,2013-03-29 05:33:00,
2013-03-29 01:43:00,25.0,22.0,30.35,NW,313,0.0,-999.0,89,-99.99,,,-99.99,,2013-03-29 05:43:00,
2013-03-29 01:52:00,24.0,21.0,30.35,NW,313,0.0,-999.0,89,-99.99,,,-99.99,,2013-03-29 05:52:00,
2013-03-29 02:02:00,23.0,20.0,30.35,NW,313,0.0,-999.0,89,-99.99,,,-99.99,,2013-03-29 06:02:00,
2013-03-29 02:12:00,23.0,20.0,30.35,NW,313,0.0,-999.0,89,-99.99,,,-99.99,,2013-03-29 06:12:00,
2013-03-29 02:23:00,22.0,19.0,30.35,NW,313,0.0,-999.0,89,-99.99,,,-99.99,,2013-03-29 06:23:00,
2013-03-29 02:32:00,22.0,19.0,30.35,NW,313,0.0,-999.0,89,-99.99,,,-99.99,,2013-03-29 06:32:00,
2013-03-29 02:42:00,22.0,19.0,30.35,NW,313,0.0,-999.0,89,-99.99,,,-99.99,,2013-03-29 06:42:00,
2013-03-29 02:52:00,22.0,20.0,30.36,NW,313,0.0,-999.0,90,-99.99,,,-99.99,,2013-03-29 06:52:00,
2013-03-29 03:03:00,22.0,20.0,30.35,NW,313,0.0,-999.0,91,-99.99,,,-99.99,,2013-03-29 07:03:00,
2013-03-29 03:12:00,22.0,20.0,30.35,NW,313,0.0,-999.0,91,-99.99,,,-99.99,,2013-03-29 07:12:00,
2013-03-29 03:22:00,22.0,20.0,30.35,NW,313,0.0,-999.0,91,-99.99,,,-99.99,,2013-03-29 07:22:00,
2013-03-29 03:32:00,21.0,19.0,30.35,NW,313,0.0,-999.0,90,-99.99,,,-99.99,,2013-03-29 07:32:00,
2013-03-29 03:42:00,21.0,19.0,30.35,NW,313,0.0,-999.0,90,-99.99,,,-99.99,,2013-03-29 07:42:00,
2013-03-29 03:52:00,22.0,20.0,30.35,NW,313,1.0,-999.0,91,-99.99,,,-99.99,,2013-03-29 07:52:00,
2013-03-29 04:02:00,22.0,20.0,30.35,NW,313,0.0,-999.0,91,-99.99,,,-99.99,,2013-03-29 08:02:00,
2013-03-29 04:12:00,22.0,20.0,30.35,NW,313,0.0,-999.0,91,-99.99,,,-99.99,,2013-03-29 08:12:00,
2013-03-29 04:22:00,22.0,20.0,30.35,NW,313,0.0,-999.0,92,-99.99,,,-99.99,,2013-03-29 08:22:00,
2013-03-29 04:32:00,21.0,19.0,30.35,NW,313,0.0,-999.0,91,-99.99,,,-99.99,,2013-03-29 08:32:00,
2013-03-29 04:42:00,21.0,19.0,30.35,NW,313,0.0,-999.0,91,-99.99,,,-99.99,,2013-03-29 08:42:00,
2013-03-29 04:53:00,20.0,18.0,30.35,NW,313,0.0,-999.0,91,-99.99,,,-99.99,,2013-03-29 08:53:00,
2013-03-29 05:02:00,20.0,18.0,30.35,NW,313,0.0,-999.0,91,-99.99,,,-99.99,,2013-03-29 09:02:00,
2013-03-29 05:13:00,20.0,18.0,30.35,NW,313,0.0,-999.0,91,-99.99,,,-99.99,,2013-03-29 09:13:00,
2013-03-29 05:22:00,20.0,18.0,30.36,NW,313,0.0,-999.0,91,-99.99,,,-99.99,,2013-03-29 09:22:00,
2013-03-29 05:33:00,20.0,18.0,30.36,NW,313,0.0,-999.0,91,-99.99,,,-99.99,,2013-03-29 09:33:00,
2013-03-29 05:43:00,20.0,18.0,30.36,NW,313,0.0,-999.0,91,-99.99,,,-99.99,,2013-03-29 09:43:00,
2013-03-29 05:52:00,20.0,18.0,30.36,NW,313,0.0,-999.0,91,-99.99,,,-99.99,,2013-03-29 09:52:00,
2013-03-29 06:03:00,19.0,17.0,30.36,NW,313,0.0,-999.0,91,-99.99,,,-99.99,,2013-03-29 10:03:00,
2013-03-29 06:12:00,19.0,17.0,30.36,NW,313,0.0,-999.0,91,-99.99,,,-99.99,,2013-03-29 10:12:00,
2013-03-29 06:23:00,18.0,16.0,30.36,NW,313,0.0,-999.0,91,-99.99,,,-99.99,,2013-03-29 10:23:00,
2013-03-29 06:33:00,18.0,16.0,30.36,NW,313,0.0,-999.0,91,-99.99,,,-99.99,,2013-03-29 10:33:00,
2013-03-29 06:42:00,18.0,16.0,30.36,NW,313,0.0,-999.0,91,-99.99,,,-99.99,,2013-03-29 10:42:00,
2013-03-29 06:53:00,18.0,16.0,30.36,NW,313,0.0,-999.0,91,-99.99,,,-99.99,,2013-03-29 10:53:00,
2013-03-29 07:03:00,18.0,16.0,30.36,NW,313,0.0,-999.0,91,-99.99,,,-99.99,,2013-03-29 11:03:00,
2013-03-29 07:12:00,18.0,16.0,30.36,NW,313,0.0,-999.0,91,-99.99,,,-99.99,,2013-03-29 11:12:00,
2013-03-29 07:23:00,18.0,16.0,30.36,NW,313,0.0,-999.0,91,-99.99,,,-99.99,,2013-03-29 11:23:00,
2013-03-29 07:33:00,18.0,16.0,30.37,NW,313,0.0,-999.0,91,-99.99,,,-99.99,,2013-03-29 11:33:00,
2013-03-29 07:42:00,18.0,16.0,30.37,NW,313,0.0,-999.0,91,-99.99,,,-99.99,,2013-03-29 11:42:00,
2013-03-29 07:53:00,18.0,16.0,30.37,NW,313,0.0,-999.0,91,-99.99,,,-99.99,,2013-03-29 11:53:00,
2013-03-29 08:03:00,17.0,15.0,30.37,NW,313,0.0,-999.0,91,-99.99,,,-99.99,,2013-03-29 12:03:00,
2013-03-29 08:13:00,17.0,15.0,30.37,NW,313,0.0,-999.0,91,-99.99,,,-99.99,,2013-03-29 12:13:00,
2013-03-29 08:22:00,18.0,16.0,30.37,NW,313,0.0,-999.0,91,-99.99,,,-99.99,,2013-03-29 12:22:00,
2013-03-29 08:32:00,19.0,17.0,30.38,NW,313,0.0,-999.0,92,-99.99,,,-99.99,,2013-03-29 12:32:00,
2013-03-29 08:42:00,19.0,17.0,30.38,NW,313,0.0,-999.0,92,-99.99,,,-99.99,,2013-03-29 12:42:00,
2013-03-29 08:53:00,21.0,19.0,30.38,NW,313,0.0,-999.0,92,-99.99,,,-99.99,,2013-03-29 12:53:00,
2013-03-29 09:03:00,24.0,22.0,30.37,NW,313,0.0,-999.0,93,-99.99,,,-99.99,,2013-03-29 13:03:00,
2013-03-29 09:13:00,24.0,22.0,30.37,NW,313,0.0,-999.0,93,-99.99,,,-99.99,,2013-03-29 13:13:00,
2013-03-29 09:23:00,25.0,23.0,30.38,NW,313,0.0,-999.0,91,-99.99,,,-99.99,,2013-03-29 13:23:00,
2013-03-29 09:33:00,24.0,22.0,30.38,NW,313,0.0,-999.0,90,-99.99,,,-99.99,,2013-03-29 13:33:00,
2013-03-29 09:43:00,24.0,22.0,30.38,NW,313,0.0,-999.0,90,-99.99,,,-99.99,,2013-03-29 13:43:00,
2013-03-29 09:53:00,25.0,23.0,30.38,NW,313,0.0,-999.0,92,-99.99,,,-99.99,,2013-03-29 13:53:00,
2013-03-29 10:03:00,27.0,25.0,30.38,NW,313,0.0,-999.0,93,-99.99,,,-99.99,,2013-03-29 14:03:00,
2013-03-29 10:12:00,27.0,25.0,30.38,NW,313,0.0,-999.0,93,-99.99,,,-99.99,,2013-03-29 14:12:00,
2013-03-29 10:22:00,27.0,25.0,30.38,NW,313,0.0,-999.0,93,-99.99,,,-99.99,,2013-03-29 14:22:00,
2013-03-29 10:33:00,28.0,27.0,30.38,NW,313,0.0,-999.0,94,-99.99,,,-99.99,,2013-03-29 14:33:00,
2013-03-29 10:42:00,28.0,27.0,30.38,NW,313,0.0,-999.0,94,-99.99,,,-99.99,,2013-03-29 14:42:00,
2013-03-29 10:53:00,30.0,28.0,30.37,NW,313,0.0,-999.0,94,-99.99,,,-99.99,,2013-03-29 14:53:00,
2013-03-29 11:02:00,31.0,29.0,30.37,SW,215,2.0,-999.0,92,-99.99,,,-99.99,,2013-03-29 15:02:00,
2013-03-29 11:12:00,31.0,29.0,30.37,SW,215,2.0,-999.0,92,-99.99,,,-99.99,,2013-03-29 15:12:00,
2013-03-29 11:22:00,33.0,30.0,30.37,SW,215,1.0,-999.0,89,-99.99,,,-99.99,,2013-03-29 15:22:00,
2013-03-29 11:33:00,34.0,30.0,30.37,SW,215,1.0,-999.0,86,-99.99,,,-99.99,,2013-03-29 15:33:00,
2013-03-29 11:43:00,34.0,30.0,30.37,SW,215,1.0,-999.0,86,-99.99,,,-99.99,,2013-03-29 15:43:00,
2013-03-29 11:53:00,35.0,30.0,30.37,SW,215,1.0,-999.0,83,-99.99,,,-99.99,,2013-03-29 15:53:00,
2013-03-29 12:03:00,36.0,30.0,30.37,SW,214,2.0,-999.0,80,-99.99,,,-99.99,,2013-03-29 16:03:00,
2013-03-29 12:13:00,36.0,30.0,30.37,SW,214,2.0,-999.0,80,-99.99,,,-99.99,,2013-03-29 16:13:00,
2013-03-29 12:23:00,36.0,30.0,30.37,SSW,204,1.0,-999.0,78,-99.99,,,-99.99,,2013-03-29 16:23:00,
2013-03-29 12:33:00,37.0,29.0,30.36,SSW,203,1.0,-999.0,74,-99.99,,,-99.99,,2013-03-29 16:33:00,
2013-03-29 12:43:00,37.0,29.0,30.36,SSW,203,1.0,-999.0,74,-99.99,,,-99.99,,2013-03-29 16:43:00,
2013-03-29 12:53:00,39.0,29.0,30.36,SSW,213,2.0,-999.0,68,-99.99,,,-99.99,,2013-03-29 16:53:00,
2013-03-29 13:03:00,40.0,28.0,30.35,WSW,248,4.0,-999.0,63,-99.99,,,-99.99,,2013-03-29 17:03:00,
2013-03-29 13:12:00,40.0,28.0,30.35,WSW,248,4.0,-999.0,63,-99.99,,,-99.99,,2013-03-29 17:12:00,
2013-03-29 13:23:00,41.0,29.0,30.35,West,261,5.0,-999.0,63,-99.99,,,-99.99,,2013-03-29 17:23:00,
2013-03-29 13:33:00,41.0,30.0,30.34,WSW,248,4.0,-999.0,64,-99.99,,,-99.99,,2013-03-29 17:33:00,
2013-03-29 13:43:00,41.0,30.0,30.34,WSW,248,4.0,-999.0,64,-99.99,,,-99.99,,2013-03-29 17:43:00,
2013-03-29 13:53:00,42.0,29.0,30.34,WSW,257,4.0,-999.0,60,-99.99,,,-99.99,,2013-03-29 17:53:00,
2013-03-29 14:02:00,42.0,27.0,30.33,WSW,256,5.0,-999.0,56,-99.99,,,-99.99,,2013-03-29 18:02:00,
2013-03-29 14:12:00,42.0,27.0,30.33,WSW,256,5.0,-999.0,56,-99.99,,,-99.99,,2013-03-29 18:12:00,
2013-03-29 14:23:00,42.0,27.0,30.33,WSW,248,5.0,-999.0,56,-99.99,,,-99.99,,2013-03-29 18:23:00,
2013-03-29 14:32:00,43.0,29.0,30.33,WSW,254,5.0,-999.0,57,-99.99,,,-99.99,,2013-03-29 18:32:00,
2013-03-29 14:42:00,43.0,29.0,30.33,WSW,254,5.0,-999.0,57,-99.99,,,-99.99,,2013-03-29 18:42:00,
2013-03-29 14:53:00,43.0,27.0,30.32,WSW,238,6.0,-999.0,52,-99.99,,,-99.99,,2013-03-29 18:53:00,
2013-03-29 15:03:00,43.0,28.0,30.32,West,259,6.0,-999.0,54,-99.99,,,-99.99,,2013-03-29 19:03:00,
2013-03-29 15:12:00,43.0,27.0,30.32,WSW,247,6.0,-999.0,52,-99.99,,,-99.99,,2013-03-29 19:12:00,
2013-03-29 15:23:00,43.0,27.0,30.32,WSW,247,6.0,-999.0,52,-99.99,,,-99.99,,2013-03-29 19:23:00,
2013-03-29 15:33:00,43.0,26.0,30.31,WSW,245,7.0,-999.0,51,-99.99,,,-99.99,,2013-03-29 19:33:00,
2013-03-29 15:43:00,43.0,26.0,30.31,WSW,245,7.0,-999.0,51,-99.99,,,-99.99,,2013-03-29 19:43:00,
2013-03-29 15:53:00,44.0,26.0,30.31,WSW,246,7.0,-999.0,48,-99.99,,,-99.99,,2013-03-29 19:53:00,
2013-03-29 16:03:00,44.0,25.0,30.31,WNW,296,5.0,-999.0,46,-99.99,,,-99.99,,2013-03-29 20:03:00,
2013-03-29 16:12:00,44.0,25.0,30.31,WNW,296,5.0,-999.0,46,-99.99,,,-99.99,,2013-03-29 20:12:00,
2013-03-29 16:23:00,44.0,24.0,30.31,WSW,255,5.0,-999.0,45,-99.99,,,-99.99,,2013-03-29 20:23:00,
2013-03-29 16:33:00,44.0,25.0,30.30,WNW,288,4.0,-999.0,47,-99.99,,,-99.99,,2013-03-29 20:33:00,
2013-03-29 16:42:00,44.0,25.0,30.30,WNW,288,4.0,-999.0,47,-99.99,,,-99.99,,2013-03-29 20:42:00,
2013-03-29 16:52:00,43.0,25.0,30.30,West,259,5.0,-999.0,49,-99.99,,,-99.99,,2013-03-29 20:52:00,
2013-03-29 17:02:00,43.0,26.0,30.30,West,265,4.0,-999.0,50,-99.99,,,-99.99,,2013-03-29 21:02:00,
2013-03-29 17:12:00,43.0,26.0,30.30,West,265,4.0,-999.0,50,-99.99,,,-99.99,,2013-03-29 21:12:00,
2013-03-29 17:22:00,43.0,26.0,30.30,WSW,252,4.0,-999.0,50,-99.99,,,-99.99,,2013-03-29 21:22:00,
2013-03-29 17:33:00,43.0,26.0,30.30,WSW,250,4.0,-999.0,51,-99.99,,,-99.99,,2013-03-29 21:33:00,
2013-03-29 17:43:00,43.0,26.0,30.30,WSW,250,4.0,-999.0,51,-99.99,,,-99.99,,2013-03-29 21:43:00,
2013-03-29 17:53:00,43.0,26.0,30.30,WNW,282,3.0,-999.0,51,-99.99,,,-99.99,,2013-03-29 21:53:00,
2013-03-29 18:03:00,43.0,25.0,30.30,WNW,302,4.0,-999.0,49,-99.99,,,-99.99,,2013-03-29 22:03:00,
2013-03-29 18:13:00,43.0,25.0,30.30,WNW,302,4.0,-999.0,49,-99.99,,,-99.99,,2013-03-29 22:13:00,
2013-03-29 18:23:00,43.0,25.0,30.30,WNW,301,5.0,-999.0,48,-99.99,,,-99.99,,2013-03-29 22:23:00,
2013-03-29 18:33:00,42.0,24.0,30.31,WNW,302,6.0,-999.0,48,-99.99,,,-99.99,,2013-03-29 22:33:00,
2013-03-29 18:42:00,42.0,24.0,30.31,WNW,302,6.0,-999.0,48,-99.99,,,-99.99,,2013-03-29 22:42:00,
2013-03-29 18:54:00,42.0,23.0,30.31,NW,311,5.0,-999.0,47,-99.99,,,-99.99,,2013-03-29 22:54:00,
2013-03-29 19:03:00,42.0,23.0,30.31,NW,319,5.0,-999.0,46,-99.99,,,-99.99,,2013-03-29 23:03:00,
2013-03-29 19:12:00,42.0,23.0,30.31,NW,319,5.0,-999.0,46,-99.99,,,-99.99,,2013-03-29 23:12:00,
2013-03-29 19:22:00,41.0,24.0,30.31,WNW,303,6.0,-999.0,51,-99.99,,,-99.99,,2013-03-29 23:22:00,
2013-03-29 19:32:00,40.0,24.0,30.31,WNW,287,4.0,-999.0,53,-99.99,,,-99.99,,2013-03-29 23:32:00,
2013-03-29 19:42:00,40.0,24.0,30.31,WNW,287,4.0,-999.0,53,-99.99,,,-99.99,,2013-03-29 23:42:00,
2013-03-29 19:53:00,39.0,24.0,30.31,WNW,301,4.0,-999.0,55,-99.99,,,-99.99,,2013-03-29 23:53:00,
2013-03-29 20:03:00,38.0,25.0,30.31,WNW,302,3.0,-999.0,58,-99.99,,,-99.99,,2013-03-30 00:03:00,
2013-03-29 20:12:00,38.0,25.0,30.31,WNW,302,3.0,-999.0,58,-99.99,,,-99.99,,2013-03-30 00:12:00,
2013-03-29 20:22:00,37.0,24.0,30.30,NW,306,3.0,-999.0,60,-99.99,,,-99.99,,2013-03-30 00:22:00,
2013-03-29 20:32:00,37.0,24.0,30.30,WNW,302,2.0,-999.0,60,-99.99,,,-99.99,,2013-03-30 00:32:00,
2013-03-29 20:43:00,37.0,24.0,30.30,WNW,302,2.0,-999.0,60,-99.99,,,-99.99,,2013-03-30 00:43:00,
2013-03-29 20:53:00,36.0,23.0,30.30,NW,306,2.0,-999.0,60,-99.99,,,-99.99,,2013-03-30 00:53:00,
2013-03-29 21:03:00,33.0,24.0,30.31,North,355,1.0,-999.0,69,-99.99,,,-99.99,,2013-03-30 01:03:00,
2013-03-29 21:13:00,33.0,24.0,30.31,North,355,1.0,-999.0,69,-99.99,,,-99.99,,2013-03-30 01:13:00,
2013-03-29 21:22:00,32.0,23.0,30.31,North,355,0.0,-999.0,69,-99.99,,,-99.99,,2013-03-30 01:22:00,
2013-03-29 21:33:00,30.0,22.0,30.31,North,355,0.0,-999.0,72,-99.99,,,-99.99,,2013-03-30 01:33:00,
2013-03-29 21:43:00,30.0,22.0,30.31,North,355,0.0,-999.0,72,-99.99,,,-99.99,,2013-03-30 01:43:00,
2013-03-29 21:53:00,29.0,22.0,30.31,North,355,0.0,-999.0,76,-99.99,,,-99.99,,2013-03-30 01:53:00,
2013-03-29 22:03:00,29.0,23.0,30.31,North,355,0.0,-999.0,77,-99.99,,,-99.99,,2013-03-30 02:03:00,
2013-03-29 22:13:00,29.0,23.0,30.31,North,355,0.0,-999.0,77,-99.99,,,-99.99,,2013-03-30 02:13:00,
2013-03-29 22:22:00,29.0,23.0,30.31,North,355,0.0,-999.0,77,-99.99,,,-99.99,,2013-03-30 02:22:00,
2013-03-29 22:33:00,28.0,22.0,30.31,North,355,0.0,-999.0,78,-99.99,,,-99.99,,2013-03-30 02:33:00,
2013-03-29 22:43:00,28.0,22.0,30.31,North,355,0.0,-999.0,78,-99.99,,,-99.99,,2013-03-30 02:43:00,
2013-03-29 22:53:00,27.0,21.0,30.30,North,355,0.0,-999.0,79,-99.99,,,-99.99,,2013-03-30 02:53:00,
2013-03-29 23:03:00,26.0,21.0,30.31,NE,45,1.0,-999.0,82,-99.99,,,-99.99,,2013-03-30 03:03:00,
2013-03-29 23:12:00,26.0,21.0,30.31,NE,45,1.0,-999.0,82,-99.99,,,-99.99,,2013-03-30 03:12:00,
2013-03-29 23:22:00,26.0,22.0,30.30,NE,45,0.0,-999.0,84,-99.99,,,-99.99,,2013-03-30 03:22:00,
2013-03-29 23:33:00,27.0,23.0,30.30,NE,45,0.0,-999.0,83,-99.99,,,-99.99,,2013-03-30 03:33:00,
2013-03-29 23:43:00,27.0,23.0,30.30,NE,45,0.0,-999.0,83,-99.99,,,-99.99,,2013-03-30 03:43:00,
2013-03-29 23:53:00,26.0,21.0,30.31,NE,45,1.0,-999.0,82,-99.99,,,-99.99,,2013-03-30 03:53:00,